Showing default

VIGORIDE 7, 68473

Orbit data source: Space-Track

VIGORIDE 7, 68473 is an American payload satellite in SSO that was launched on Mon, 30 Mar 2026 UTC via an FALCON 9 launch vehicle from the Air Force Western Test Range (AFWTR). Payload-class satellites include a variety of spacecraft equipped with specific instruments for various scientific and technological missions. These include communications satellites like Starlink; space stations such as the ISS; scientific satellites like the Hubble; Earth observation satellites from companies like Planet Labs, Umbra, and HawkEye 360; GPS; miniature CubeSats for education and research; and military/defense satellites.

Loading next visibility...
Identifier
68473, 2026-067BK
Orbit
SSO
Country
Flag of USUS
Related business
None
Manufacturer
Unknown
Mission
Operational spacecraft
Bus & Motor
Unknown
Mass
Unknown
Launch date (UTC)
2026-03-30 (1 month ago)
Launch vehicle
FALCON 9
Launch site
Air Force Western Test Range (AFWTR)
Object type
Payload
Rocket body
Debris
Shape & HBR
Unknown shape, 1.1 m
Radar Cross Section
RCS unknown

Expand to show TLE details & history
Last TLE update: 8 hours ago

TLE from 8 hours ago
0 VIGORIDE 7
1 68473U 26067BK  26127.14172782  .00003684  00000-0  18305-3 0  9990
2 68473  97.4516  86.2141 0003381 141.1937 218.9540 15.18277430  5692
Epoch: 2026-05-07T03:24Z
TLE epoch observation values (Epoch: 2026-05-07T03:24:05.283Z)
Latitude
-0.00007°
Longitude
170.19998°
Altitude
515.945 km
Speed
7.605 km/s
True Right ascension
05h 44m 51s
True Declination
0° 00' 00"
Sunlit
Object was in daylight at epoch
Visualization orbit readout
Latitude
Unknown
Longitude
Unknown
Altitude
Unknown
Speed
Unknown
Apparent Right ascension
Unknown
Apparent Declination
Unknown
Sunlit
N/A
Visualization observer readout
Local Sidereal Time
19:06:48
Azimuth
Unknown
Elevation
Unknown
Doppler factor
Unknown
Orbital elements
Apogee altitude
510.345 km
Perigee altitude
505.688 km
Semi-major axis
6,886.154 km
Eccentricity
0.00034
Inclination
97.4516°
RAAN
86.2141°
Arg. of periapsis
141.1937°
True anomaly
218.92965°
Mean anomaly
218.954°
Eccentric anomaly
218.94182°
Mean motion
3.7982 °/min
Orbital period
94.78 mins
BSTAR
0.00018305
Loading maneuver chart data...
Computing Atmospheric mass density...
Loading historical data...
Loading historical data...
Loading historical data...
Loading historical data...
Loading historical data...
Loading historical data...
Loading historical data...

Documentation

Showing up to 5 results
|